When you browse on this site, cookies collect data to enhance your experience and personalize the content and advertising you see.
Visit our Privacy Policy to learn more. By continuing to use the site, you agree to this use of cookies and data.
EN

Hourly Weather Mulhule

Today, 13 July, Monday

Time Temperature Precipitation Wind Pressure Humidity
00:00 +37°C° 0 mm 9 mps 750 mmHg 49%
01:00 +36°C° 0 mm 7 mps 749 mmHg 45%
02:00 +36°C° 0 mm 4 mps 749 mmHg 42%
03:00 +36°C° 0 mm 3 mps 749 mmHg 37%
04:00 +36°C° 0 mm 3 mps 749 mmHg 36%
05:00 +36°C° 0 mm 2 mps 750 mmHg 34%
06:00 +36°C° 0 mm 2 mps 751 mmHg 33%
07:00 +37°C° 0.1 mm 3 mps 751 mmHg 33%
08:00 +38°C° 0.1 mm 3 mps 751 mmHg 33%
09:00 +40°C° 0 mm 4 mps 751 mmHg 30%
10:00 +41°C° 0 mm 5 mps 751 mmHg 31%
11:00 +42°C° 0 mm 5 mps 751 mmHg 31%
12:00 +42°C° 0 mm 6 mps 751 mmHg 32%
13:00 +43°C° 0 mm 7 mps 750 mmHg 33%
14:00 +43°C° 0 mm 8 mps 749 mmHg 34%
15:00 +43°C° 0 mm 9 mps 748 mmHg 34%
16:00 +42°C° 0 mm 10 mps 748 mmHg 37%
17:00 +40°C° 0 mm 10 mps 748 mmHg 40%
18:00 +39°C° 0 mm 10 mps 748 mmHg 43%
19:00 +38°C° 0 mm 10 mps 749 mmHg 45%
20:00 +38°C° 0 mm 10 mps 749 mmHg 48%
21:00 +37°C° 0 mm 9 mps 749 mmHg 51%
22:00 +37°C° 0 mm 9 mps 749 mmHg 53%
23:00 +37°C° 0 mm 9 mps 750 mmHg 55%

Tomorrow, 14 July, Tuesday

Time Temperature Precipitation Wind Pressure Humidity
00:00 +35°C° 0 mm 9 mps 750 mmHg 57%
01:00 +35°C° 0 mm 8 mps 750 mmHg 58%
02:00 +35°C° 0 mm 7 mps 750 mmHg 58%
03:00 +35°C° 0 mm 6 mps 750 mmHg 58%
04:00 +35°C° 0 mm 6 mps 750 mmHg 55%
05:00 +35°C° 0 mm 5 mps 751 mmHg 51%
06:00 +35°C° 0 mm 5 mps 752 mmHg 48%
07:00 +37°C° 0 mm 5 mps 752 mmHg 42%
08:00 +40°C° 0 mm 4 mps 752 mmHg 36%
09:00 +41°C° 0 mm 4 mps 752 mmHg 30%
10:00 +42°C° 0 mm 5 mps 752 mmHg 31%
11:00 +42°C° 0 mm 6 mps 752 mmHg 32%
12:00 +42°C° 0 mm 6 mps 752 mmHg 33%
13:00 +43°C° 0 mm 7 mps 751 mmHg 33%
14:00 +43°C° 0 mm 8 mps 750 mmHg 32%
15:00 +43°C° 0 mm 8 mps 749 mmHg 32%
16:00 +41°C° 0 mm 8 mps 749 mmHg 36%
17:00 +40°C° 0 mm 9 mps 749 mmHg 39%
18:00 +39°C° 0 mm 9 mps 749 mmHg 43%
19:00 +39°C° 0 mm 9 mps 750 mmHg 47%
20:00 +38°C° 0 mm 9 mps 750 mmHg 51%
21:00 +37°C° 0 mm 8 mps 750 mmHg 55%
22:00 +37°C° 0 mm 8 mps 751 mmHg 55%
23:00 +37°C° 0 mm 8 mps 751 mmHg 55%

Day after tomorrow, 15 July, Wednesday

Time Temperature Precipitation Wind Pressure Humidity
00:00 +36°C° 0 mm 7 mps 751 mmHg 55%
01:00 +36°C° 0 mm 7 mps 751 mmHg 53%
02:00 +36°C° 0 mm 7 mps 751 mmHg 50%
03:00 +36°C° 0 mm 7 mps 750 mmHg 48%
04:00 +36°C° 0 mm 6 mps 751 mmHg 47%
05:00 +36°C° 0 mm 5 mps 751 mmHg 45%
06:00 +36°C° 0 mm 4 mps 752 mmHg 44%
07:00 +37°C° 0.1 mm 4 mps 752 mmHg 41%
08:00 +38°C° 0.1 mm 4 mps 753 mmHg 38%
09:00 +40°C° 0.1 mm 4 mps 753 mmHg 34%
10:00 +41°C° 0 mm 5 mps 753 mmHg 34%
11:00 +42°C° 0 mm 5 mps 752 mmHg 34%
12:00 +42°C° 0 mm 6 mps 752 mmHg 34%
13:00 +43°C° 0 mm 7 mps 751 mmHg 34%
14:00 +43°C° 0 mm 7 mps 751 mmHg 33%
15:00 +43°C° 0 mm 8 mps 750 mmHg 33%
16:00 +41°C° 0 mm 8 mps 750 mmHg 36%
17:00 +40°C° 0 mm 7 mps 750 mmHg 39%
18:00 +39°C° 0 mm 7 mps 750 mmHg 41%
19:00 +39°C° 0 mm 8 mps 750 mmHg 45%
20:00 +38°C° 0 mm 8 mps 751 mmHg 48%
21:00 +38°C° 0 mm 8 mps 751 mmHg 51%
22:00 +38°C° 0 mm 8 mps 751 mmHg 48%
23:00 +38°C° 0 mm 7 mps 751 mmHg 45%

16 July, Thursday

Time Temperature Precipitation Wind Pressure Humidity
00:00 +38°C° 0 mm 7 mps 751 mmHg 42%
01:00 +37°C° 0 mm 5 mps 751 mmHg 41%
02:00 +37°C° 0 mm 4 mps 750 mmHg 39%
03:00 +37°C° 0 mm 2 mps 750 mmHg 37%
04:00 +37°C° 0 mm 2 mps 750 mmHg 37%
05:00 +37°C° 0 mm 2 mps 751 mmHg 37%
06:00 +36°C° 0 mm 2 mps 751 mmHg 37%
07:00 +37°C° 0 mm 2 mps 751 mmHg 39%
08:00 +36°C° 0 mm 1 mps 752 mmHg 42%
09:00 +36°C° 0 mm 1 mps 752 mmHg 45%
10:00 +38°C° 0 mm 2 mps 752 mmHg 42%
11:00 +39°C° 0 mm 3 mps 751 mmHg 38%
12:00 +41°C° 0 mm 4 mps 751 mmHg 35%
13:00 +41°C° 0 mm 4 mps 751 mmHg 35%
14:00 +41°C° 0 mm 5 mps 750 mmHg 34%
15:00 +41°C° 0 mm 5 mps 750 mmHg 34%
16:00 +41°C° 0 mm 4 mps 750 mmHg 35%
17:00 +39°C° 0 mm 2 mps 750 mmHg 36%
18:00 +39°C° 0 mm 1 mps 750 mmHg 37%
19:00 +39°C° 0 mm 2 mps 750 mmHg 35%
20:00 +40°C° 0 mm 4 mps 751 mmHg 34%
21:00 +39°C° 0 mm 5 mps 751 mmHg 32%
22:00 +39°C° 0 mm 5 mps 751 mmHg 29%
23:00 +40°C° 0 mm 5 mps 751 mmHg 27%

17 July, Friday

Time Temperature Precipitation Wind Pressure Humidity
00:00 +40°C° 0 mm 4 mps 751 mmHg 24%
01:00 +38°C° 0 mm 4 mps 750 mmHg 29%
02:00 +37°C° 0 mm 4 mps 750 mmHg 35%
03:00 +36°C° 0 mm 3 mps 750 mmHg 40%
04:00 +36°C° 0 mm 3 mps 750 mmHg 44%
05:00 +36°C° 0 mm 3 mps 751 mmHg 48%
06:00 +35°C° 0 mm 2 mps 751 mmHg 51%
07:00 +36°C° 0 mm 2 mps 752 mmHg 48%
08:00 +37°C° 0 mm 2 mps 752 mmHg 45%
09:00 +38°C° 0 mm 2 mps 753 mmHg 42%
10:00 +39°C° 0 mm 2 mps 752 mmHg 39%
11:00 +40°C° 0 mm 3 mps 752 mmHg 35%
12:00 +42°C° 0 mm 3 mps 752 mmHg 31%
13:00 +42°C° 0 mm 4 mps 751 mmHg 32%
14:00 +42°C° 0 mm 5 mps 750 mmHg 33%
15:00 +41°C° 0 mm 5 mps 750 mmHg 35%
16:00 +40°C° 0 mm 6 mps 750 mmHg 41%
17:00 +39°C° 0 mm 7 mps 750 mmHg 47%
18:00 +38°C° 0 mm 9 mps 750 mmHg 53%
19:00 +37°C° 0 mm 9 mps 750 mmHg 55%
20:00 +37°C° 0 mm 9 mps 751 mmHg 56%
21:00 +37°C° 0 mm 10 mps 751 mmHg 57%
22:00 +37°C° 0 mm 10 mps 751 mmHg 55%
23:00 +37°C° 0 mm 10 mps 750 mmHg 53%

18 July, Saturday

Time Temperature Precipitation Wind Pressure Humidity
00:00 +37°C° 0 mm 10 mps 750 mmHg 51%
01:00 +37°C° 0 mm 10 mps 750 mmHg 52%
02:00 +37°C° 0 mm 11 mps 750 mmHg 54%
03:00 +37°C° 0 mm 11 mps 750 mmHg 56%
04:00 +37°C° 0 mm 10 mps 750 mmHg 53%
05:00 +37°C° 0 mm 8 mps 751 mmHg 50%
06:00 +36°C° 0 mm 7 mps 751 mmHg 48%
07:00 +38°C° 0 mm 7 mps 751 mmHg 42%
08:00 +40°C° 0 mm 7 mps 752 mmHg 37%
09:00 +41°C° 0 mm 8 mps 752 mmHg 31%
10:00 +41°C° 0 mm 8 mps 751 mmHg 31%
11:00 +43°C° 0 mm 8 mps 751 mmHg 30%
12:00 +43°C° 0 mm 8 mps 751 mmHg 30%
13:00 +43°C° 0 mm 9 mps 750 mmHg 31%
14:00 +43°C° 0 mm 9 mps 749 mmHg 31%
15:00 +43°C° 0 mm 10 mps 749 mmHg 32%
16:00 +42°C° 0 mm 10 mps 749 mmHg 37%
17:00 +40°C° 0 mm 10 mps 749 mmHg 42%
18:00 +39°C° 0 mm 10 mps 749 mmHg 47%
19:00 +38°C° 0 mm 11 mps 750 mmHg 49%
20:00 +38°C° 0 mm 11 mps 750 mmHg 51%
21:00 +37°C° 0 mm 12 mps 750 mmHg 53%
22:00 +37°C° 0 mm 11 mps 750 mmHg 54%
23:00 +37°C° 0 mm 11 mps 750 mmHg 55%
Show more